Time,TemperatureF,DewpointF,PressureIn,WindDirection,WindDirectionDegrees,WindSpeedMPH,WindSpeedGustMPH,Humidity,HourlyPrecipIn,Conditions,Clouds,dailyrainin,SoftwareType,DateUTC
2013-06-06 00:02:00,75.0,56.0,29.88,WSW,250,4.0,6.0,51,0.00,,,0.00,,2013-06-05 21:02:00,
2013-06-06 00:12:00,75.0,57.0,29.88,West,271,0.0,5.0,53,0.00,,,0.00,,2013-06-05 21:12:00,
2013-06-06 00:22:00,75.0,57.0,29.88,West,271,0.0,5.0,53,0.00,,,0.00,,2013-06-05 21:22:00,
2013-06-06 00:33:00,75.0,57.0,29.88,West,271,0.0,5.0,53,0.00,,,0.00,,2013-06-05 21:33:00,
2013-06-06 00:43:00,75.0,57.0,29.91,NNW,333,0.0,3.0,53,0.00,,,0.00,,2013-06-05 21:43:00,
2013-06-06 00:53:00,75.0,57.0,29.91,NNW,333,0.0,3.0,53,0.00,,,0.00,,2013-06-05 21:53:00,
2013-06-06 01:02:00,75.0,57.0,29.91,NNW,333,0.0,3.0,53,0.00,,,0.00,,2013-06-05 22:02:00,
2013-06-06 01:12:00,75.0,57.0,29.91,NNW,333,0.0,3.0,53,0.00,,,0.00,,2013-06-05 22:12:00,
2013-06-06 01:22:00,75.0,57.0,29.91,North,351,0.0,3.0,53,0.00,,,0.00,,2013-06-05 22:22:00,
2013-06-06 01:32:00,75.0,57.0,29.91,North,351,0.0,3.0,53,0.00,,,0.00,,2013-06-05 22:32:00,
2013-06-06 01:42:00,74.0,55.0,29.91,NNW,346,0.0,6.0,51,0.00,,,0.00,,2013-06-05 22:42:00,
2013-06-06 01:52:00,74.0,55.0,29.91,NNW,346,0.0,6.0,51,0.00,,,0.00,,2013-06-05 22:52:00,
2013-06-06 02:02:00,74.0,55.0,29.91,NNW,346,0.0,6.0,51,0.00,,,0.00,,2013-06-05 23:02:00,
2013-06-06 02:12:00,74.0,53.0,29.91,NNW,346,0.0,3.0,48,0.00,,,0.00,,2013-06-05 23:12:00,
2013-06-06 02:22:00,74.0,53.0,29.91,NNW,346,0.0,3.0,48,0.00,,,0.00,,2013-06-05 23:22:00,
2013-06-06 02:30:00,74.0,54.0,29.91,West,260,0.0,5.0,49,0.00,,,0.00,,2013-06-05 23:30:00,
2013-06-06 02:32:00,74.0,53.0,29.91,NNW,346,0.0,3.0,48,0.00,,,0.00,,2013-06-05 23:32:00,
2013-06-06 02:42:00,74.0,53.0,29.91,NNW,346,0.0,3.0,48,0.00,,,0.00,,2013-06-05 23:42:00,
2013-06-06 02:53:00,74.0,54.0,29.91,West,260,0.0,5.0,49,0.00,,,0.00,,2013-06-05 23:53:00,
2013-06-06 03:02:00,74.0,54.0,29.91,West,260,0.0,5.0,49,0.00,,,0.00,,2013-06-06 00:02:00,
2013-06-06 03:12:00,74.0,54.0,29.91,West,260,0.0,5.0,49,0.00,,,0.00,,2013-06-06 00:12:00,
2013-06-06 03:22:00,74.0,54.0,29.91,West,260,0.0,5.0,49,0.00,,,0.00,,2013-06-06 00:22:00,
2013-06-06 11:42:00,77.0,55.0,29.94,SSE,167,5.0,7.0,46,0.00,,,0.00,,2013-06-06 08:42:00,
2013-06-06 11:52:00,77.0,55.0,29.94,SSE,167,5.0,7.0,46,0.00,,,0.00,,2013-06-06 08:52:00,
2013-06-06 12:02:00,77.0,55.0,29.94,SSE,167,5.0,7.0,46,0.00,,,0.00,,2013-06-06 09:02:00,
2013-06-06 12:12:00,77.0,55.0,29.94,SSE,167,5.0,7.0,46,0.00,,,0.00,,2013-06-06 09:12:00,
2013-06-06 12:22:00,78.0,54.0,29.94,SW,227,5.0,10.0,44,0.00,,,0.00,,2013-06-06 09:22:00,
2013-06-06 12:32:00,78.0,54.0,29.94,SW,227,5.0,10.0,44,0.00,,,0.00,,2013-06-06 09:32:00,
2013-06-06 12:43:00,78.0,54.0,29.94,SW,227,5.0,10.0,44,0.00,,,0.00,,2013-06-06 09:43:00,
2013-06-06 12:53:00,79.0,54.0,29.94,WSW,239,6.0,10.0,42,0.00,,,0.00,,2013-06-06 09:53:00,
2013-06-06 13:02:00,79.0,54.0,29.94,WSW,239,6.0,10.0,42,0.00,,,0.00,,2013-06-06 10:02:00,
2013-06-06 13:12:00,79.0,55.0,29.94,WSW,249,8.0,15.0,43,0.00,,,0.00,,2013-06-06 10:12:00,
2013-06-06 13:22:00,79.0,55.0,29.94,WSW,249,8.0,15.0,43,0.00,,,0.00,,2013-06-06 10:22:00,
2013-06-06 13:32:00,79.0,55.0,29.94,WSW,249,8.0,15.0,43,0.00,,,0.00,,2013-06-06 10:32:00,
2013-06-06 13:42:00,79.0,55.0,29.97,SW,218,5.0,15.0,43,0.00,,,0.00,,2013-06-06 10:42:00,
2013-06-06 13:52:00,79.0,55.0,29.97,SW,218,5.0,15.0,43,0.00,,,0.00,,2013-06-06 10:52:00,
2013-06-06 14:02:00,79.0,55.0,29.97,SW,218,5.0,15.0,43,0.00,,,0.00,,2013-06-06 11:02:00,
2013-06-06 14:12:00,79.0,55.0,29.97,SW,218,5.0,15.0,43,0.00,,,0.00,,2013-06-06 11:12:00,
2013-06-06 14:22:00,79.0,54.0,29.97,WSW,250,6.0,14.0,42,0.00,,,0.00,,2013-06-06 11:22:00,
2013-06-06 14:32:00,79.0,54.0,29.97,WSW,250,6.0,14.0,42,0.00,,,0.00,,2013-06-06 11:32:00,
2013-06-06 14:42:00,79.0,54.0,29.97,WSW,250,6.0,14.0,42,0.00,,,0.00,,2013-06-06 11:42:00,
2013-06-06 14:52:00,79.0,54.0,29.97,SSW,202,7.0,13.0,42,0.00,,,0.00,,2013-06-06 11:52:00,
2013-06-06 15:02:00,79.0,54.0,29.97,SSW,202,7.0,13.0,42,0.00,,,0.00,,2013-06-06 12:02:00,
2013-06-06 15:12:00,79.0,54.0,29.97,SSW,202,7.0,13.0,42,0.00,,,0.00,,2013-06-06 12:12:00,
2013-06-06 15:22:00,80.0,55.0,29.94,NW,317,3.0,10.0,43,0.00,,,0.00,,2013-06-06 12:22:00,
2013-06-06 15:32:00,80.0,55.0,29.94,NW,317,3.0,10.0,43,0.00,,,0.00,,2013-06-06 12:32:00,
2013-06-06 15:43:00,81.0,55.0,29.94,SSW,198,5.0,10.0,41,0.00,,,0.00,,2013-06-06 12:43:00,
2013-06-06 15:52:00,81.0,55.0,29.94,SSW,198,5.0,10.0,41,0.00,,,0.00,,2013-06-06 12:52:00,
2013-06-06 16:02:00,81.0,55.0,29.94,SSW,198,5.0,10.0,41,0.00,,,0.00,,2013-06-06 13:02:00,
2013-06-06 16:12:00,82.0,57.0,29.94,WSW,247,6.0,10.0,42,0.00,,,0.00,,2013-06-06 13:12:00,
2013-06-06 16:22:00,82.0,57.0,29.94,WSW,247,6.0,10.0,42,0.00,,,0.00,,2013-06-06 13:22:00,
2013-06-06 16:32:00,82.0,57.0,29.94,WSW,247,6.0,10.0,42,0.00,,,0.00,,2013-06-06 13:32:00,
2013-06-06 16:43:00,82.0,57.0,29.94,WSW,247,6.0,10.0,42,0.00,,,0.00,,2013-06-06 13:43:00,
2013-06-06 16:52:00,81.0,57.0,29.94,SW,216,6.0,13.0,44,0.00,,,0.00,,2013-06-06 13:52:00,
2013-06-06 17:02:00,81.0,57.0,29.94,SW,216,6.0,13.0,44,0.00,,,0.00,,2013-06-06 14:02:00,
2013-06-06 17:12:00,81.0,57.0,29.94,SW,216,6.0,13.0,44,0.00,,,0.00,,2013-06-06 14:12:00,
2013-06-06 17:22:00,79.0,59.0,29.94,SSW,197,6.0,13.0,51,0.00,,,0.00,,2013-06-06 14:22:00,
2013-06-06 17:32:00,79.0,59.0,29.94,SSW,197,6.0,13.0,51,0.00,,,0.00,,2013-06-06 14:32:00,
2013-06-06 17:43:00,79.0,59.0,29.94,SSW,197,6.0,13.0,51,0.00,,,0.00,,2013-06-06 14:43:00,
2013-06-06 17:52:00,78.0,59.0,29.94,SW,231,8.0,14.0,53,0.00,,,0.00,,2013-06-06 14:52:00,
2013-06-06 18:12:00,78.0,59.0,29.94,SW,231,8.0,14.0,53,0.00,,,0.00,,2013-06-06 15:12:00,
2013-06-06 18:22:00,78.0,62.0,29.94,SW,235,6.0,14.0,58,0.00,,,0.00,,2013-06-06 15:22:00,
2013-06-06 18:32:00,78.0,62.0,29.94,SW,235,6.0,14.0,58,0.00,,,0.00,,2013-06-06 15:32:00,
2013-06-06 18:43:00,78.0,62.0,29.94,SW,235,6.0,14.0,58,0.00,,,0.00,,2013-06-06 15:43:00,
2013-06-06 18:53:00,78.0,62.0,29.94,SSW,200,7.0,12.0,57,0.00,,,0.00,,2013-06-06 15:53:00,
2013-06-06 19:02:00,78.0,62.0,29.94,SSW,200,7.0,12.0,57,0.00,,,0.00,,2013-06-06 16:02:00,
2013-06-06 19:12:00,78.0,62.0,29.94,SSW,200,7.0,12.0,57,0.00,,,0.00,,2013-06-06 16:12:00,
2013-06-06 19:22:00,77.0,61.0,29.94,South,178,6.0,12.0,57,0.00,,,0.00,,2013-06-06 16:22:00,
2013-06-06 19:33:00,77.0,61.0,29.94,South,178,6.0,12.0,57,0.00,,,0.00,,2013-06-06 16:33:00,
2013-06-06 19:44:00,77.0,61.0,29.94,South,178,6.0,12.0,57,0.00,,,0.00,,2013-06-06 16:44:00,
2013-06-06 19:53:00,76.0,61.0,29.94,South,173,5.0,12.0,60,0.00,,,0.00,,2013-06-06 16:53:00,
2013-06-06 20:02:00,76.0,61.0,29.94,South,173,5.0,12.0,60,0.00,,,0.00,,2013-06-06 17:02:00,
2013-06-06 20:12:00,75.0,60.0,29.94,SSW,210,7.0,12.0,59,0.00,,,0.00,,2013-06-06 17:12:00,
2013-06-06 20:22:00,75.0,60.0,29.94,SSW,210,7.0,12.0,59,0.00,,,0.00,,2013-06-06 17:22:00,
2013-06-06 20:32:00,75.0,60.0,29.94,SSW,210,7.0,12.0,59,0.00,,,0.00,,2013-06-06 17:32:00,
2013-06-06 20:43:00,75.0,60.0,29.94,SSW,210,7.0,12.0,59,0.00,,,0.00,,2013-06-06 17:43:00,
2013-06-06 20:53:00,75.0,58.0,29.94,South,189,6.0,12.0,55,0.00,,,0.00,,2013-06-06 17:53:00,
2013-06-06 21:02:00,75.0,58.0,29.94,South,189,6.0,12.0,55,0.00,,,0.00,,2013-06-06 18:02:00,
2013-06-06 21:12:00,75.0,58.0,29.94,South,189,6.0,12.0,55,0.00,,,0.00,,2013-06-06 18:12:00,
2013-06-06 21:22:00,75.0,58.0,29.97,WSW,240,6.0,9.0,56,0.00,,,0.00,,2013-06-06 18:22:00,
2013-06-06 21:33:00,75.0,58.0,29.97,WSW,240,6.0,9.0,56,0.00,,,0.00,,2013-06-06 18:33:00,
2013-06-06 21:43:00,75.0,58.0,29.97,WSW,240,6.0,9.0,56,0.00,,,0.00,,2013-06-06 18:43:00,
2013-06-06 21:53:00,75.0,57.0,29.97,SW,234,4.0,9.0,54,0.00,,,0.00,,2013-06-06 18:53:00,
2013-06-06 22:02:00,75.0,57.0,29.97,SW,234,4.0,9.0,54,0.00,,,0.00,,2013-06-06 19:02:00,
2013-06-06 22:12:00,75.0,56.0,29.97,NNE,25,3.0,10.0,51,0.00,,,0.00,,2013-06-06 19:12:00,
2013-06-06 22:23:00,75.0,56.0,29.97,NNE,25,3.0,10.0,51,0.00,,,0.00,,2013-06-06 19:23:00,
2013-06-06 22:32:00,75.0,56.0,29.97,NNE,25,3.0,10.0,51,0.00,,,0.00,,2013-06-06 19:32:00,
2013-06-06 22:43:00,75.0,56.0,29.97,NNE,25,3.0,10.0,51,0.00,,,0.00,,2013-06-06 19:43:00,
2013-06-06 22:53:00,75.0,52.0,29.97,South,190,3.0,8.0,44,0.00,,,0.00,,2013-06-06 19:53:00,
2013-06-06 23:02:00,75.0,52.0,29.97,South,190,3.0,8.0,44,0.00,,,0.00,,2013-06-06 20:02:00,
2013-06-06 23:12:00,75.0,52.0,29.97,South,190,3.0,8.0,44,0.00,,,0.00,,2013-06-06 20:12:00,
2013-06-06 23:22:00,75.0,51.0,29.97,SW,235,3.0,5.0,43,0.00,,,0.00,,2013-06-06 20:22:00,
2013-06-06 23:32:00,75.0,51.0,29.97,SW,235,3.0,5.0,43,0.00,,,0.00,,2013-06-06 20:32:00,
2013-06-06 23:43:00,75.0,51.0,29.97,SW,235,3.0,5.0,43,0.00,,,0.00,,2013-06-06 20:43:00,
2013-06-06 23:53:00,75.0,52.0,29.97,SW,229,3.0,5.0,44,0.00,,,0.00,,2013-06-06 20:53:00,